Regional Weather Roundup
Issued by NWS

Home | Current Version | Previous Version | Graphics & Text | Print | Product List | Glossary Off
Versions: 1 2 3 4 5 6 7 8 9 10 11 12 13 14 15 16 17 18 19 20 21 22 23 24 25 26 27 28 29 30 31 32 33 34 35 36 37 38 39 40 41 42 43 44 45 46 47 48 49 50

000
ASUS43 KLSX 251607
RWRMO

WEATHER SUMMARY FOR MISSOURI
NATIONAL WEATHER SERVICE SPRINGFIELD MO
1100 AM CDT SUN SEP 25 2016

NOTE: "FAIR" INDICATES FEW OR NO CLOUDS BELOW 12,000 FEET WITH NO
       SIGNIFICANT WEATHER AND/OR OBSTRUCTIONS TO VISIBILITY.
       CURRENT SKY AND/OR WEATHER CONDITIONS ARE NOT AVAILABLE FOR
       CHILLICOTHE AND FARMINGTON.

MOZ001>031-035>038-043-044-053-054-251700-
...NORTHERN AND WESTERN MISSOURI...

CITY           SKY/WX    TMP DP  RH WIND       PRES   REMARKS
KANSAS CTY INT DRIZZLE   63  58  83 N15       30.14R
KANSAS C DTWN  CLOUDY    69  65  86 N13G20    30.12R
LEE`S SUMMIT   LGT RAIN  69  68  96 SW5       30.13S
ST JOSEPH      LGT RAIN  60  56  86 N9        30.14S
CHILLICOTHE      N/A     72  66  81 VRB7      30.11R
KIRKSVILLE     CLOUDY    75  67  76 W12       30.08R

$$
MOZ066>068-077>081-088>096-101>105-251700-
...SOUTHWEST MISSOURI...

CITY           SKY/WX    TMP DP  RH WIND       PRES   REMARKS
SPRINGFIELD    SUNNY     83  68  60 SW8       30.10S
JOPLIN         PTSUNNY   76  68  76 N8        30.13R
BRANSON        PTSUNNY   82  68  61 S5        30.13R

$$
MOZ032>034-039>042-045>050-055>058-069>072-251700-
...CENTRAL MISSOURI...

CITY           SKY/WX    TMP DP  RH WIND       PRES   REMARKS
COLUMBIA       MOSUNNY   81  67  62 W10       30.09R
JEFFERSON CITY SUNNY     82  67  60 W7        30.08R
ROLLA          SUNNY     81  68  64 S6        30.09S
SEDALIA        CLOUDY    76  66  71 NW10G18   30.13R
WHITEMAN AFB   PTSUNNY   69  69 100 NW9       30.12R
OSAGE BEACH    SUNNY     81  71  71 SW6       30.10R

$$
MOZ051-052-059>065-251700-
...EAST CENTRAL MISSOURI...

CITY           SKY/WX    TMP DP  RH WIND       PRES   REMARKS
ST LOUIS INTL  PTSUNNY   85  68  56 SW9       30.07R
SPIRIT OF STL  PTSUNNY   83  70  64 W7        30.06S
ST CHARLES     MOSUNNY   84  70  62 SW8       30.05S

$$
MOZ072>076-082>087-097>100-106>115-251700-
...SOUTH CENTRAL AND SOUTHEAST MISSOURI...

CITY           SKY/WX    TMP DP  RH WIND       PRES   REMARKS
CAPE GIRARDEAU MOSUNNY   84  68  58 SW5       30.08S
FARMINGTON     SUNNY     81  70  69 S7        30.10F
WEST PLAINS    MOSUNNY   83  68  60 VRB3      30.13S

$$



USA.gov is the U.S. government's official web portal to all federal, state and local government web resources and services.